TimeEST,TemperatureF,Dew PointF,Humidity,Sea Level PressureIn,VisibilityMPH,Wind Direction,Wind SpeedMPH,Gust SpeedMPH,PrecipitationIn,Events,Conditions,WindDirDegrees,DateUTC
12:53 AM,28.0,19.9,72,30.05,10.0,NNE,10.4,-,N/A,,Overcast,20,2013-03-02 05:53:00
1:53 AM,27.0,19.9,75,30.05,10.0,NNE,9.2,-,N/A,,Overcast,20,2013-03-02 06:53:00
2:53 AM,27.0,19.9,75,30.04,10.0,North,9.2,-,N/A,,Overcast,360,2013-03-02 07:53:00
3:53 AM,26.1,19.0,75,30.04,10.0,North,9.2,-,N/A,,Overcast,350,2013-03-02 08:53:00
4:53 AM,26.1,19.0,75,30.03,10.0,North,8.1,-,N/A,,Overcast,350,2013-03-02 09:53:00
5:53 AM,26.1,19.9,78,30.04,10.0,NNW,6.9,-,N/A,,Overcast,340,2013-03-02 10:53:00
6:53 AM,26.1,18.0,71,30.05,10.0,North,8.1,-,N/A,,Overcast,360,2013-03-02 11:53:00
7:53 AM,26.1,19.0,75,30.06,10.0,North,8.1,-,N/A,,Overcast,350,2013-03-02 12:53:00
8:53 AM,25.0,19.0,78,30.07,4.0,North,8.1,-,0.00,Snow,Light Snow,350,2013-03-02 13:53:00
9:53 AM,25.0,21.0,85,30.07,5.0,North,8.1,-,0.00,Snow,Light Snow,350,2013-03-02 14:53:00
10:53 AM,25.0,19.9,81,30.07,5.0,North,6.9,-,0.00,Snow,Light Snow,350,2013-03-02 15:53:00
11:05 AM,24.8,21.2,86,30.04,3.0,North,5.8,-,0.00,Snow,Light Snow,10,2013-03-02 16:05:00
11:24 AM,24.8,21.2,86,30.04,2.0,North,5.8,-,0.01,Snow,Light Snow,350,2013-03-02 16:24:00
11:28 AM,24.8,21.2,86,30.04,3.0,North,6.9,-,0.01,Snow,Light Snow,360,2013-03-02 16:28:00
11:53 AM,26.1,19.9,78,30.08,5.0,North,6.9,-,0.01,Snow,Light Snow,350,2013-03-02 16:53:00
12:53 PM,27.0,19.9,75,30.06,10.0,North,4.6,-,0.00,,Overcast,10,2013-03-02 17:53:00
1:53 PM,26.1,19.0,75,30.05,9.0,NW,9.2,-,0.00,,Overcast,320,2013-03-02 18:53:00
2:53 PM,27.0,18.0,69,30.05,10.0,NNW,8.1,-,N/A,,Overcast,340,2013-03-02 19:53:00
3:53 PM,27.0,19.0,72,30.05,10.0,NNW,8.1,-,N/A,,Overcast,330,2013-03-02 20:53:00
4:53 PM,27.0,19.0,72,30.06,9.0,NNW,10.4,-,0.00,Snow,Light Snow,340,2013-03-02 21:53:00
5:53 PM,27.0,18.0,69,30.06,10.0,NNW,9.2,-,0.00,,Overcast,330,2013-03-02 22:53:00
6:53 PM,27.0,17.1,66,30.08,10.0,NNW,10.4,-,N/A,,Overcast,330,2013-03-02 23:53:00
7:32 PM,26.6,17.6,69,30.05,10.0,NW,4.6,-,N/A,,Overcast,320,2013-03-03 00:32:00
8:53 PM,27.0,18.0,69,30.09,10.0,NNW,3.5,-,N/A,,Overcast,330,2013-03-03 01:53:00
9:53 PM,26.1,18.0,71,30.09,10.0,Calm,Calm,-,N/A,,Overcast,0,2013-03-03 02:53:00
10:53 PM,26.1,18.0,71,30.08,10.0,WNW,3.5,-,N/A,,Overcast,290,2013-03-03 03:53:00
11:31 PM,26.6,19.4,74,30.04,10.0,West,3.5,-,N/A,,Overcast,280,2013-03-03 04:31:00
11:53 PM,26.1,19.0,75,30.07,10.0,WNW,3.5,-,N/A,,Overcast,290,2013-03-03 04:53:00